DECAYED
Showing default

FLOCK 4Q 1, 58270 (Decayed)

Orbit data source: Space-Track

FLOCK 4Q 1, 58270 was a payload satellite owned by Planet (US) in LEO that was launched on Sat, 11 Nov 2023 UTC via an FALCON 9 launch vehicle from the Air Force Western Test Range (AFWTR). Payload-class satellites include a variety of spacecraft equipped with specific instruments for various scientific and technological missions. These include communications satellites like Starlink; space stations such as the ISS; scientific satellites like the Hubble; Earth observation satellites from companies like Planet Labs, Umbra, and HawkEye 360; GPS; miniature CubeSats for education and research; and military/defense satellites.

Not visible in the next 10 days
Identifier
58270, 2023-174Q
Orbit
Decayed
Country
Flag of USUS
Related business
Manufacturer
Planet
Mission
Decayed Commercial Imaging
Bus & Motor
CUBESAT 3U, Unknown motor
Mass
5.7 kg wet, 5.7 kg dry
Launch date (UTC)
2023-11-11 (3 years ago)
Launch vehicle
FALCON 9
Launch site
Air Force Western Test Range (AFWTR)
Object type
Payload
Rocket body
Debris
Shape & HBR
Box + 2 Pan, 1.0 m
Radar Cross Section
0.072 m², Medium (>0.1 m² and < 1m²)

Expand to show TLE details & history
Last TLE update: 2 months ago

TLE from 2 months ago
0 FLOCK 4Q 1
1 58270U 23174Q   26173.35000446  .04501227  24635-5  14221-2 0  9998
2 58270  97.3819 269.3494 0017907 276.3246  83.6006 16.25979091146858
Epoch: 2026-06-22T08:24Z
TLE epoch observation values (Epoch: 2026-06-22T08:24:00.385Z)
Latitude
-0.00006°
Longitude
-127.18938°
Altitude
205.308 km
Speed
7.784 km/s
True Right ascension
17h 57m 23s
True Declination
0° 00' 00"
Sunlit
Object was in full shadow at epoch
Visualization orbit readout
Latitude
Unknown
Longitude
Unknown
Altitude
Unknown
Speed
Unknown
Apparent Right ascension
Unknown
Apparent Declination
Unknown
Sunlit
N/A
Visualization observer readout
Local Sidereal Time
21:12:35
Azimuth
Unknown
Elevation
Unknown
Doppler factor
Unknown
Orbital elements
Apogee altitude
211.973 km
Perigee altitude
188.413 km
Semi-major axis
6,578.33 km
Eccentricity
0.00179
Inclination
97.3819°
RAAN
269.3494°
Arg. of periapsis
276.3246°
True anomaly
83.80457°
Mean anomaly
83.6006°
Eccentric anomaly
83.70258°
Mean motion
4.06789 °/min
Orbital period
88.5 mins
BSTAR
0.0014221
Loading maneuver chart data...
Computing Atmospheric mass density...

Documentation

Showing up to 5 results
|